Location: Ferchesar
(52.6477°N, 12.4298°E)
Time: 05:55:39
(UTC+01:00)

Vanguard 1 Rocket - Pass Details

Date: 10 December 2021
Orbit: 651 x 4224 km, 34.3° (Epoch: 15 January)

Event Time Altitude Azimuth Distance (km) Brightness Sun altitude
Exits shadow 02:41:39 30° 148° (SSE) 3,540 10.2 -47.7°
Drops below altitude 10° 02:53:05 10° 112° (ESE) 6,118 11.9 -46.2°
Sets 02:59:40 0° 105° (ESE) 7,680 12.6 -45.3°
